Date String (YYYY-MM-DD hh:mm:ss) UTC,Instrument flags,Ambient pressure (hPa),Sample flow (lpm),Bypass flow (lpm),Sample temperature (°C),Ambient temperature (°C),ASC tube jacket temperature (°C),LED temperature (°C),Box temperature (°C),Sample RH (%),Span deviation,Mass concentration (μg/m³),Mass concentration (μg/m³),Mass concentration (μg/m³)
DateTimeUTC,F1_M11,P_M11,Q1_M11,Q2_M11,T1_M11,T2_M11,T3_M11,T4_M11,T5_M11,U1_M11,ZSPAN_M11,X0_M11,X2_M11,X1_M11
2023-02-11 21:00:00,,0823.1,4.99,0.00,25.9,24.6,00.0,34.6,27.7,11.8,0000.0,0022.41,0011.38,0010.18
2023-02-11 21:01:00,,0822.9,5.00,0.00,25.9,24.6,00.0,34.6,27.8,12.0,0000.0,0021.55,0011.49,0010.31
2023-02-11 21:02:00,,0823.0,5.01,0.00,25.9,24.6,00.0,34.6,27.7,11.9,0000.0,0019.97,0011.62,0010.42
2023-02-11 21:03:00,,0823.2,5.01,0.00,25.9,24.6,00.0,34.6,27.7,11.9,0000.0,0019.83,0011.78,0010.54
2023-02-11 21:04:00,,0823.0,5.02,0.00,25.9,24.6,00.0,34.6,27.7,12.2,0000.0,0019.88,0011.86,0010.63
2023-02-11 21:05:00,,0822.9,4.99,0.00,25.9,24.6,00.0,34.6,27.7,12.7,0000.0,0020.05,0011.96,0010.70
2023-02-11 21:06:00,,0823.0,4.98,0.00,25.9,24.6,00.0,34.6,27.7,12.8,0000.0,0020.99,0012.04,0010.79
2023-02-11 21:07:00,,0823.0,4.98,0.00,25.9,24.6,00.0,34.6,27.7,12.9,0000.0,0021.75,0012.14,0010.85
2023-02-11 21:08:00,,0822.9,4.99,0.00,25.9,24.6,00.0,34.6,27.7,12.8,0000.0,0022.24,0012.21,0010.92
2023-02-11 21:09:00,,0823.0,4.99,0.00,25.9,24.6,00.0,34.6,27.8,12.8,0000.0,0022.38,0012.23,0010.94
2023-02-11 21:10:00,,0823.0,5.01,0.00,25.9,24.6,00.0,34.7,27.8,12.6,0000.0,0022.46,0012.26,0010.97
2023-02-11 21:11:00,,0823.0,5.01,0.00,25.9,24.5,00.0,34.7,27.8,12.4,0000.0,0022.99,0012.33,0010.99
2023-02-11 21:12:00,,0822.9,4.99,0.00,25.9,24.6,00.0,34.7,27.8,12.5,0000.0,0022.91,0012.29,0010.96
2023-02-11 21:13:00,,0822.9,4.98,0.00,25.9,24.6,00.0,34.7,27.7,12.3,0000.0,0022.69,0012.22,0010.93
2023-02-11 21:14:00,,0822.9,5.00,0.00,25.9,24.6,00.0,34.7,27.7,12.1,0000.0,0023.50,0012.12,0010.89
2023-02-11 21:15:00,,0823.0,4.97,0.00,25.9,24.6,00.0,34.7,27.8,12.3,0000.0,0024.38,0012.07,0010.83
2023-02-11 21:16:00,,0823.0,4.99,0.00,25.9,24.6,00.0,34.7,27.8,12.5,0000.0,0024.28,0011.96,0010.76
2023-02-11 21:17:00,,0822.9,4.99,0.00,25.9,24.6,00.0,34.7,27.8,12.4,0000.0,0023.40,0011.87,0010.67
2023-02-11 21:18:00,,0822.9,5.01,0.00,25.9,24.6,00.0,34.7,27.8,12.2,0000.0,0022.46,0011.74,0010.58
2023-02-11 21:19:00,,0822.9,5.01,0.00,25.9,24.7,00.0,34.7,27.8,12.3,0000.0,0021.74,0011.61,0010.49
2023-02-11 21:20:00,,0822.9,5.01,0.00,25.9,24.7,00.0,34.7,27.8,12.2,0000.0,0021.68,0011.55,0010.43
2023-02-11 21:21:00,,0822.9,4.98,0.00,25.9,24.7,00.0,34.7,27.8,12.2,0001.1,0021.63,0011.48,0010.38
2023-02-11 21:22:00,,0822.9,5.00,0.00,25.9,24.7,00.0,34.7,27.8,12.2,0000.2,0020.98,0011.39,0010.34
2023-02-11 21:23:00,,0822.8,4.99,0.00,26.0,24.7,00.0,34.7,27.8,12.2,0001.1,0020.98,0011.35,0010.33
2023-02-11 21:24:00,,0822.8,4.98,0.00,26.0,24.7,00.0,34.7,27.8,12.1,0000.7,0021.76,0011.32,0010.30
2023-02-11 21:25:00,,0822.7,5.01,0.00,26.0,24.7,00.0,34.7,27.8,12.1,0003.0,0020.34,0011.31,0010.30
2023-02-11 21:26:00,,0822.8,5.00,0.00,26.0,24.7,00.0,34.7,27.9,12.2,0003.1,0019.40,0011.24,0010.26
2023-02-11 21:27:00,,0822.7,5.01,0.00,26.0,24.7,00.0,34.7,27.9,12.3,0002.9,0020.29,0011.21,0010.24
2023-02-11 21:28:00,,0822.7,4.99,0.00,26.0,24.7,00.0,34.7,27.9,12.0,0002.8,0020.92,0011.17,0010.20
2023-02-11 21:29:00,,0822.8,5.01,0.00,26.0,24.8,00.0,34.8,27.9,12.0,0003.1,0021.97,0011.18,0010.18
2023-02-11 21:30:00,,0822.7,5.00,0.00,26.0,24.8,00.0,34.8,27.9,11.9,0003.4,0022.00,0011.15,0010.14
2023-02-11 21:31:00,,0822.7,5.00,0.00,26.0,24.8,00.0,34.8,27.9,11.9,0004.0,0020.97,0011.09,0010.09
2023-02-11 21:32:00,,0822.7,4.99,0.00,26.0,24.8,00.0,34.8,27.9,11.9,0001.1,0021.43,0011.04,0010.05
2023-02-11 21:33:00,,0822.7,4.99,0.00,26.0,24.8,00.0,34.8,28.0,11.7,0000.0,0021.62,0010.96,0009.98
2023-02-11 21:34:00,,0822.7,5.01,0.00,26.1,24.8,00.0,34.8,28.0,11.6,0000.0,0021.91,0010.94,0009.94
2023-02-11 21:35:00,,0822.7,5.03,0.00,26.1,24.8,00.0,34.8,28.0,11.7,0000.0,0021.41,0010.91,0009.89
2023-02-11 21:36:00,,0822.8,4.98,0.00,26.1,24.9,00.0,34.8,28.0,11.5,0000.0,0021.82,0010.87,0009.84
2023-02-11 21:37:00,,0822.7,5.00,0.00,26.1,24.9,00.0,34.8,28.0,11.3,0000.0,0021.43,0010.83,0009.78
2023-02-11 21:38:00,,0822.7,5.01,0.00,26.1,24.9,00.0,34.8,28.0,11.3,0000.0,0020.65,0010.77,0009.71
2023-02-11 21:39:00,,0822.7,5.01,0.00,26.1,24.9,00.0,34.8,28.0,11.4,0000.0,0019.87,0010.71,0009.67
2023-02-11 21:40:00,,0822.7,4.99,0.00,26.1,24.9,00.0,34.8,28.0,11.6,0000.0,0019.17,0010.63,0009.64
2023-02-11 21:41:00,,0822.7,5.01,0.00,26.2,24.9,00.0,34.9,28.0,11.3,0000.0,0019.04,0010.60,0009.61
2023-02-11 21:42:00,,0822.7,5.00,0.00,26.2,24.9,00.0,34.9,28.0,11.2,0000.0,0019.77,0010.58,0009.57
2023-02-11 21:43:00,,0822.7,4.98,0.00,26.2,24.9,00.0,34.9,28.1,11.3,0000.0,0019.48,0010.57,0009.53
2023-02-11 21:44:00,,0822.7,4.97,0.00,26.2,24.9,00.0,34.9,28.1,11.4,0000.0,0019.43,0010.54,0009.50
2023-02-11 21:45:00,,0822.7,4.97,0.00,26.2,25.0,00.0,34.9,28.1,11.3,0000.0,0019.15,0010.52,0009.47
2023-02-11 21:46:00,,0822.7,5.00,0.00,26.2,25.0,00.0,34.9,28.1,11.3,0000.0,0019.37,0010.49,0009.44
2023-02-11 21:47:00,,0822.7,4.99,0.00,26.2,25.0,00.0,34.9,28.1,11.3,0000.0,0018.94,0010.46,0009.44
2023-02-11 21:48:00,,0822.7,5.01,0.00,26.2,25.0,00.0,34.9,28.1,11.1,0000.0,0018.92,0010.46,0009.45
2023-02-11 21:49:00,,0822.7,4.99,0.00,26.2,25.0,00.0,34.9,28.1,11.1,0000.0,0019.07,0010.44,0009.47
2023-02-11 21:50:00,,0822.7,5.01,0.00,26.2,25.0,00.0,34.9,28.1,11.6,0000.0,0019.84,0010.47,0009.48
2023-02-11 21:51:00,,0822.6,5.00,0.00,26.2,25.0,00.0,35.0,28.1,11.9,0000.0,0019.96,0010.54,0009.48
2023-02-11 21:52:00,,0822.6,5.01,0.00,26.3,25.0,00.0,35.0,28.1,12.0,0000.0,0020.30,0010.58,0009.49
2023-02-11 21:53:00,,0822.6,4.98,0.00,26.2,25.0,00.0,35.0,28.1,11.9,0000.0,0019.86,0010.61,0009.54
2023-02-11 21:54:00,,0822.6,5.01,0.00,26.3,25.0,00.0,35.0,28.1,12.0,0000.0,0020.12,0010.59,0009.58
2023-02-11 21:55:00,,0822.6,4.99,0.00,26.3,25.0,00.0,35.0,28.1,12.0,0000.0,0021.20,0010.61,0009.60
2023-02-11 21:56:00,,0822.6,5.01,0.00,26.3,25.0,00.0,35.0,28.1,12.0,0000.0,0021.08,0010.63,0009.63
2023-02-11 21:57:00,,0822.6,4.99,0.00,26.3,25.0,00.0,35.0,28.1,12.0,0000.0,0021.00,0010.63,0009.65
2023-02-11 21:58:00,,0822.6,5.02,0.00,26.3,25.0,00.0,35.0,28.1,11.7,0000.0,0020.95,0010.61,0009.64
2023-02-11 21:59:00,,0822.6,5.00,0.00,26.3,25.0,00.0,35.0,28.2,11.9,0000.0,0021.04,0010.65,0009.65
